This is the latest recevied weather packets stored in our database for station/object EA1GEC-10. If no packets are shown the sender has not sent any weather packets the latest 10 day(s).
| Time | Temp. | Humidity | Pressure | Rain* | Wind** | Luminosity | Snow |
|---|---|---|---|---|---|---|---|
| 1777232594 | 17.78° C | 62% | 1025.9 hPa | - | - | - | - |
| 1777231693 | 17.78° C | 62% | 1025.8 hPa | - | - | - | - |
| 1777230793 | 17.78° C | 61% | 1025.7 hPa | - | - | - | - |
| 1777229893 | 17.78° C | 61% | 1025.7 hPa | - | - | - | - |
| 1777228993 | 17.78° C | 61% | 1025.7 hPa | - | - | - | - |
| 1777228103 | 17.78° C | 61% | 1025.7 hPa | - | - | - | - |
| 1777227945 | 17.78° C | 61% | 1025.7 hPa | - | - | - | - |
| 1777227184 | 18.33° C | 61% | 1025.6 hPa | - | - | - | - |
| 1777226284 | 18.33° C | 61% | 1025.6 hPa | - | - | - | - |
| 1777225384 | 18.33° C | 60% | 1025.7 hPa | - | - | - | - |
| 1777224483 | 18.33° C | 60% | 1025.6 hPa | - | - | - | - |
| 1777223583 | 18.89° C | 59% | 1025.8 hPa | - | - | - | - |
| 1777222526 | 18.89° C | 59% | 1025.8 hPa | - | - | - | - |
| 1777220366 | 19.44° C | 58% | 1025.4 hPa | - | - | - | - |
| 1777219483 | 19.44° C | 57% | 1025.5 hPa | - | - | - | - |
| 1777213495 | 19.44° C | 56% | 1025.8 hPa | - | - | - | - |
| 1777212595 | 19.44° C | 55% | 1025.9 hPa | - | - | - | - |
| 1777211704 | 19.44° C | 55% | 1025.9 hPa | - | - | - | - |
| 1777210804 | 19.44° C | 55% | 1025.9 hPa | - | - | - | - |
| 1777209895 | 19.44° C | 54% | 1025.9 hPa | - | - | - | - |
| 1777208994 | 19.44° C | 53% | 1025.8 hPa | - | - | - | - |
| 1777208094 | 20° C | 51% | 1025.8 hPa | - | - | - | - |
| 1777207194 | 20° C | 49% | 1025.8 hPa | - | - | - | - |
| 1777206294 | 21.11° C | 45% | 1026 hPa | - | - | - | - |
| 1777205396 | 33.33° C | 33% | 1025.9 hPa | - | - | - | - |
* Rain since midnight (hover to see other rain measurements)
** Current wind speed in m/s (hover to see current wind gust speed)